EW0408 Weather Reports


Display with metric or nautical units.
time (UTC)temp
F
wind
direction
speed
MPH
gust
MPH
rain 1hr
in
rain 24hr
in
rain mn
in
humidity
%
barometer
mb
20260507095004 70 0 0.0 0.0 0.00 0.00 0.00 84 1015.4
20260507094025 70 0 0.0 0.0 0.00 0.00 0.00 84 1015.4
20260507093003 70 0 0.0 0.0 0.00 0.00 0.00 84 1015.5
20260507092005 70 0 0.0 0.0 0.00 0.00 0.00 84 1015.4
20260507091005 71 0 0.0 0.0 0.00 0.00 0.00 84 1015.3
20260507090006 71 0 0.0 0.0 0.00 0.00 0.00 83 1015.1
20260507085005 72 0 0.0 0.0 0.00 0.00 0.00 83 1015.2
20260507084005 72 0 0.0 0.0 0.00 0.00 0.00 83 1015.0
20260507083005 72 0 0.0 0.0 0.00 0.00 0.00 82 1015.0
20260507082005 72 0 0.0 0.0 0.00 0.00 0.00 82 1015.1
20260507081005 72 0 0.0 0.0 0.00 0.00 0.00 82 1015.2
20260507080005 73 0 0.0 0.0 0.00 0.00 0.00 81 1015.1
20260507075005 73 0 0.0 0.0 0.00 0.00 0.00 81 1014.9
20260507074026 73 188 0.0 2.0 0.00 0.00 0.00 81 1014.8
20260507073005 73 159 0.0 2.0 0.00 0.00 0.00 82 1014.8
20260507072005 73 0 0.0 0.0 0.00 0.00 0.00 81 1014.9
20260507071005 73 0 0.0 0.0 0.00 0.00 0.00 80 1014.9
20260507070009 73 0 0.0 0.0 0.00 0.00 0.00 80 1015.0
20260507065005 73 0 0.0 0.0 0.00 0.00 0.00 80 1015.2
20260507064005 72 0 0.0 0.0 0.00 0.00 0.00 80 1015.5
20260507063026 72 0 0.0 0.0 0.00 0.00 0.00 80 1015.7
20260507062005 73 0 0.0 0.0 0.00 0.00 0.00 79 1015.7
20260507061026 73 0 0.0 0.0 0.00 0.00 0.00 79 1015.9
20260507060005 73 0 0.0 0.0 0.00 0.00 0.00 78 1016.0
20260507055005 73 0 0.0 0.0 0.00 0.00 0.00 78 1016.0
20260507054004 74 0 0.0 0.0 0.00 0.00 0.00 77 1016.2
20260507053005 74 0 0.0 0.0 0.00 0.00 0.00 76 1016.3
20260507052004 74 0 0.0 0.0 0.00 0.00 0.00 75 1016.4
20260507051005 74 0 0.0 0.0 0.00 0.00 0.00 75 1016.6
20260507050005 75 0 0.0 0.0 0.00 0.00 0.00 74 1016.7
20260507045005 75 0 0.0 0.0 0.00 0.00 0.00 73 1016.7
20260507044005 76 0 0.0 0.0 0.00 0.00 0.00 72 1016.6
20260507043005 76 0 0.0 0.0 0.00 0.00 0.00 71 1016.7
20260507042004 76 0 0.0 0.0 0.00 0.00 0.00 71 1016.9
20260507041026 77 172 0.0 2.0 0.00 0.00 0.00 70 1016.8
20260507040026 77 172 0.0 3.0 0.00 0.00 0.00 69 1016.8
20260507035026 77 0 0.0 0.0 0.00 0.00 0.00 68 1016.8
20260507034005 78 173 1.0 2.0 0.00 0.00 0.00 68 1016.7
20260507033005 78 173 1.0 3.0 0.00 0.00 0.00 68 1016.5
20260507032026 78 173 0.0 2.0 0.00 0.00 0.00 69 1016.5
20260507031026 78 0 0.0 0.0 0.00 0.00 0.00 68 1016.5
20260507030026 78 0 0.0 0.0 0.00 0.00 0.00 68 1016.6
20260507025005 78 171 0.0 3.0 0.00 0.00 0.00 66 1016.4
20260507024004 79 0 0.0 0.0 0.00 0.00 0.00 65 1016.4
20260507023005 79 0 0.0 0.0 0.00 0.00 0.00 65 1016.5
20260507022005 80 170 1.0 2.0 0.00 0.00 0.00 64 1016.4
20260507021005 80 170 0.0 2.0 0.00 0.00 0.00 63 1016.6
20260507020004 81 169 0.0 2.0 0.00 0.00 0.00 62 1016.4
20260507015005 81 0 0.0 0.0 0.00 0.00 0.00 62 1016.4
20260507014004 82 118 1.0 5.0 0.00 0.00 0.00 62 1016.2
20260507013004 81 97 1.0 4.0 0.00 0.00 0.00 64 1016.2
20260507012005 82 98 1.0 5.0 0.00 0.00 0.00 64 1015.9
20260507011026 82 89 1.0 3.0 0.00 0.00 0.00 62 1015.8
20260507010005 82 93 1.0 3.0 0.00 0.00 0.00 63 1015.8
20260507005005 82 0 0.0 0.0 0.00 0.00 0.00 63 1015.5
20260507004005 82 0 0.0 0.0 0.00 0.00 0.00 61 1015.4
20260507003005 83 0 0.0 0.0 0.00 0.00 0.00 59 1015.3
20260507002004 84 0 0.0 0.0 0.00 0.00 0.00 58 1015.4
20260507001005 85 0 0.0 0.0 0.00 0.00 0.00 57 1015.1
20260507000004 86 0 0.0 0.0 0.00 0.00 0.00 57 1015.1
20260506235004 87 0 0.0 0.0 0.00 0.00 0.00 59 1015.1
20260506234004 88 0 0.0 0.0 0.00 0.00 0.00 58 1015.1
20260506233005 89 0 0.0 0.0 0.00 0.00 0.00 58 1015.1
20260506232005 89 0 0.0 0.0 0.00 0.00 0.00 59 1015.0
20260506231005 89 86 0.0 1.0 0.00 0.00 0.00 54 1015.1
20260506230004 90 86 0.0 1.0 0.00 0.00 0.00 55 1015.0
20260506225004 90 85 0.0 1.0 0.00 0.00 0.00 54 1015.0
20260506224005 91 0 0.0 0.0 0.00 0.00 0.00 52 1015.1
20260506223005 91 0 0.0 0.0 0.00 0.00 0.00 46 1015.0
20260506222004 91 84 0.0 1.0 0.00 0.00 0.00 47 1015.0
20260506221004 91 68 1.0 4.0 0.00 0.00 0.00 47 1015.0
20260506220004 91 58 1.0 2.0 0.00 0.00 0.00 51 1015.1
20260506215006 91 62 0.0 4.0 0.00 0.00 0.00 51 1015.1
20260506214004 92 48 1.0 4.0 0.00 0.00 0.00 48 1015.1
20260506213004 92 0 0.0 0.0 0.00 0.00 0.00 45 1015.1
20260506212005 92 0 0.0 0.0 0.00 0.00 0.00 47 1015.2
20260506211026 92 0 0.0 0.0 0.00 0.00 0.00 52 1015.1
20260506210005 92 52 1.0 4.0 0.00 0.00 0.00 50 1015.1
20260506205004 92 58 1.0 3.0 0.00 0.00 0.00 52 1015.2
20260506204004 92 61 2.0 4.0 0.00 0.00 0.00 48 1015.2
20260506203005 91 61 2.0 4.0 0.00 0.00 0.00 50 1015.2
20260506202005 91 48 3.0 5.0 0.00 0.00 0.00 52 1015.3
20260506201025 92 0 0.0 0.0 0.00 0.00 0.00 46 1015.3
20260506200004 92 58 2.0 5.0 0.00 0.00 0.00 48 1015.4
20260506195025 92 60 2.0 5.0 0.00 0.00 0.00 46 1015.4
20260506194004 91 51 3.0 4.0 0.00 0.00 0.00 50 1015.5
20260506193004 92 56 2.0 5.0 0.00 0.00 0.00 46 1015.5
20260506192005 91 64 2.0 5.0 0.00 0.00 0.00 47 1015.5
20260506191005 90 49 3.0 5.0 0.00 0.00 0.00 49 1015.7
20260506190005 90 52 3.0 4.0 0.00 0.00 0.00 50 1015.8
20260506185004 89 38 3.0 4.0 0.00 0.00 0.00 53 1016.0
20260506184005 90 42 3.0 4.0 0.00 0.00 0.00 51 1016.1
20260506183006 90 49 3.0 5.0 0.00 0.00 0.00 55 1016.3
20260506182004 89 41 3.0 5.0 0.00 0.00 0.00 53 1016.4
20260506181004 90 45 2.0 4.0 0.00 0.00 0.00 50 1016.5
20260506180006 90 64 2.0 5.0 0.00 0.00 0.00 56 1016.5
20260506175004 90 49 2.0 4.0 0.00 0.00 0.00 52 1016.7
20260506174004 90 64 1.0 4.0 0.00 0.00 0.00 58 1016.8
20260506173005 90 61 2.0 4.0 0.00 0.00 0.00 59 1016.9
20260506172004 89 58 2.0 5.0 0.00 0.00 0.00 59 1016.9
20260506171004 90 73 1.0 3.0 0.00 0.00 0.00 58 1016.9
20260506170004 90 80 1.0 3.0 0.00 0.00 0.00 59 1017.1
20260506165004 89 82 1.0 3.0 0.00 0.00 0.00 61 1017.1
20260506164004 89 75 1.0 5.0 0.00 0.00 0.00 61 1017.3
20260506163025 89 78 1.0 3.0 0.00 0.00 0.00 60 1017.1
20260506162004 89 86 1.0 2.0 0.00 0.00 0.00 57 1017.3
20260506161004 89 85 0.0 3.0 0.00 0.00 0.00 56 1017.3
20260506160004 88 72 1.0 5.0 0.00 0.00 0.00 61 1017.4
20260506155004 86 61 2.0 4.0 0.00 0.00 0.00 60 1017.4
20260506154004 87 69 2.0 5.0 0.00 0.00 0.00 64 1017.5
20260506153005 85 56 2.0 4.0 0.00 0.00 0.00 68 1017.4
20260506152004 86 66 2.0 4.0 0.00 0.00 0.00 68 1017.6
20260506151025 85 72 1.0 4.0 0.00 0.00 0.00 68 1017.8
20260506150005 85 63 2.0 4.0 0.00 0.00 0.00 69 1017.7
20260506145005 85 77 1.0 3.0 0.00 0.00 0.00 69 1017.5
20260506144004 85 82 0.0 3.0 0.00 0.00 0.00 68 1017.5
20260506143004 85 0 0.0 0.0 0.00 0.00 0.00 71 1017.5
20260506142004 84 0 0.0 0.0 0.00 0.00 0.00 71 1017.4
20260506141025 84 0 0.0 0.0 0.00 0.00 0.00 72 1017.4
20260506140025 83 0 0.0 0.0 0.00 0.00 0.00 73 1017.5
20260506135004 82 84 0.0 1.0 0.00 0.00 0.00 74 1017.5
20260506134004 82 0 0.0 0.0 0.00 0.00 0.00 75 1017.6
20260506133004 80 93 0.0 1.0 0.00 0.00 0.00 78 1017.4
20260506132005 80 0 0.0 0.0 0.00 0.00 0.00 77 1017.2
20260506131004 79 0 0.0 0.0 0.00 0.00 0.00 78 1017.1
20260506130005 78 0 0.0 0.0 0.00 0.00 0.00 81 1017.0
20260506125004 77 70 0.0 1.0 0.00 0.00 0.00 82 1017.0
20260506124004 76 0 0.0 0.0 0.00 0.00 0.00 83 1016.9
20260506123005 75 0 0.0 0.0 0.00 0.00 0.00 86 1016.9
20260506122005 74 0 0.0 0.0 0.00 0.00 0.00 89 1016.7
20260506121025 73 0 0.0 0.0 0.00 0.00 0.00 89 1016.6
20260506120005 72 0 0.0 0.0 0.00 0.00 0.00 90 1016.6
20260506115004 71 0 0.0 0.0 0.00 0.00 0.00 91 1016.5
20260506114005 70 0 0.0 0.0 0.00 0.00 0.00 91 1016.5
20260506113004 70 0 0.0 0.0 0.00 0.00 0.00 91 1016.4
20260506112004 70 0 0.0 0.0 0.00 0.00 0.00 91 1016.2
20260506111025 70 0 0.0 0.0 0.00 0.00 0.00 91 1016.1
20260506110004 70 0 0.0 0.0 0.00 0.00 0.00 91 1016.1
20260506105004 70 0 0.0 0.0 0.00 0.00 0.00 90 1016.0
20260506104005 70 0 0.0 0.0 0.00 0.00 0.00 90 1015.9
20260506103004 69 0 0.0 0.0 0.00 0.00 0.00 90 1015.9
20260506102004 69 0 0.0 0.0 0.00 0.00 0.00 90 1015.8
20260506101005 69 0 0.0 0.0 0.00 0.00 0.00 90 1015.9
20260506100004 69 0 0.0 0.0 0.00 0.00 0.00 90 1015.8